Location: Unspecified
(41.1637°N, 24.2901°E)
Time: 09:31:28
(UTC+01:00)

ISS - Pass Details

Date: 26 October 2020
Orbit: 417 x 420 km, 51.6° (Epoch: 29 October)

Event Time Altitude Azimuth Distance (km) Brightness Sun altitude
Exits shadow 03:34:11 31° 82° (E) 765 -1.9 -25.6°
Drops below altitude 10° 03:36:11 10° 64° (ENE) 1,495 -0.1 -25.2°
Sets 03:38:20 0° 58° (ENE) 2,362 1.1 -24.8°
